Regional Weather Roundup
Issued by NWS

Home | Current Version | Previous Version | Graphics & Text | Print | Product List | Glossary On
Versions: 1 2 3 4 5 6 7 8 9 10 11 12 13 14 15 16 17 18 19 20 21 22 23 24 25 26 27 28 29 30 31 32 33 34 35 36 37 38 39 40 41 42 43 44 45 46 47 48 49 50
000
ASUS43 KIND 192109
RWRIN

WEATHER ROUNDUP FOR INDIANA
NATIONAL WEATHER SERVICE INDIANAPOLIS IN
500 PM EDT SAT APR 19 2014

NOTE: "FAIR" INDICATES FEW OR NO CLOUDS BELOW 12,000 FEET WITH NO
SIGNIFICANT WEATHER AND/OR OBSTRUCTIONS TO VISIBILITY.

* - STATION DOES NOT REPORT WEATHER SUCH AS PRECIPITATION OR FOG.

+ - STATION NOT QUALITY CONTROLLED BY THE NATIONAL WEATHER SERVICE.
    USE DATA WITH CAUTION...ESPECIALLY DEWPOINT AND RELATIVE
    HUMIDITY OBSERVATIONS.

INZ001>003-010>013-019-020-192200-
NORTHWEST INDIANA

CITY           SKY/WX    TMP DP  RH WIND       PRES   REMARKS
GARY /AIRPORT/ PTSUNNY   59  37  44 N5        30.28F
LA PORTE +     MOSUNNY   64  34  32 SE9       30.29F
MICHIGAN CITY+ PTSUNNY   64  30  27 E9        30.29F
MONTICELLO +   SUNNY     64  39  38 E8        30.27F
RENSSELAER +   MOSUNNY   66  32  28 E9        30.28F
VALPARAISO     MOSUNNY   65  33  30 SE8G18    30.28F

$$

LMZ046-743>745-192200-
SOUTHERN LAKE MICHIGAN

STATION/POSITION TIME  TEMP WIND        PRES
                       AIR  DIR/SP/G
                 (UTC) (F)  (DEG/KT/KT) (MB)
MICHIGAN CITY    2100   62   70/ 10/ 15   N/A

$$

INZ004-005-014>016-021>024-192200-
NORTH CENTRAL INDIANA

CITY           SKY/WX    TMP DP  RH WIND       PRES   REMARKS
ELKHART        SUNNY     63  32  31 SE10      30.30F
GOSHEN         SUNNY     64  36  35 SE10      30.30F
LOGANSPORT +   SUNNY     64  34  32 E10       30.29F
PERU/GRISSOM   SUNNY     65  39  38 E12       30.28F
ROCHESTER +    SUNNY     64  34  32 SE10      30.30F
SOUTH BEND     MOSUNNY   63  34  33 SE12      30.30F
WARSAW +       SUNNY     61  36  39 SE8       30.30F

$$

INZ006>009-017-018-025>027-192200-
NORTHEAST INDIANA

CITY           SKY/WX    TMP DP  RH WIND       PRES   REMARKS
ANGOLA *+      SUNNY     57  30  35 SE12      30.32F
AUBURN +       SUNNY     61  30  31 E13       30.32F
FORT WAYNE     MOSUNNY   60  31  33 E15G24    30.31F

$$

INZ028-029-035-036-043>045-051>053-192200-
WEST CENTRAL INDIANA

CITY           SKY/WX    TMP DP  RH WIND       PRES   REMARKS
GREENCASTLE +  SUNNY     68  41  37 E12G17    30.25F
LAFAYETTE      SUNNY     67  38  34 E13G20    30.26F
TERRE HAUTE    SUNNY     72  37  28 NE9G21    30.23F

$$

INZ030>032-037>040-046>048-054>057-064-065-192200-
CENTRAL INDIANA

CITY           SKY/WX    TMP DP  RH WIND       PRES   REMARKS
CP ATTERBURY + SUNNY     68  37  32 E10G17    30.25F
COLUMBUS       SUNNY     68  36  30 NE13      30.24F
INDIANAPOLIS   MOSUNNY   67  36  31 E12G21    30.24F
-EAGLE CREEK   SUNNY     66  33  29 E9G18     30.25F
KOKOMO *+      SUNNY     63  39  42 E15       30.27F
MARION +       SUNNY     63  34  34 E10G18    30.29F
MT COMFORT *+  SUNNY     68  39  34 NE12      30.26F
SHELBYVILLE    SUNNY     70  37  29 NE15G21   30.25F
ZIONSVILLE +   SUNNY     67  33  29 E8        30.27F

$$

INZ033-034-041-042-049-050-058-059-192200-
EAST CENTRAL INDIANA

CITY           SKY/WX    TMP DP  RH WIND       PRES   REMARKS
MUNCIE         SUNNY     63  36  36 NE14G21   30.28F

$$

INZ060-061-067>069-081>083-085>088-192200-
SOUTHWEST INDIANA

CITY           SKY/WX    TMP DP  RH WIND       PRES   REMARKS
EVANSVILLE     SUNNY     76  33  21 N5G17     30.19F
HUNTINGBURG *+ SUNNY     72  39  30 NE10G17   30.20S
WASHINGTON +   SUNNY     73  38  27 E6        30.20F

$$

INZ062-063-066-070>080-084-089>092-192200-
SOUTH CENTRAL AND SOUTHEAST INDIANA

CITY           SKY/WX    TMP DP  RH WIND       PRES   REMARKS
BLOOMINGTON    SUNNY     72  33  24 NE10      30.22F
SEYMOUR +      SUNNY     68  18  14 NE12G17   30.23

$$




USA.gov is the U.S. government's official web portal to all federal, state and local government web resources and services.